Theta_e
318 320 321 321 321 321 323 324 325 327 327 325 325 325 325 325 324 324 321 317 316 317 317 317 320 323 323 323 325 323 322 321 319 315 313 314 317 321 322 320 317 318 315
314 316 318 318 320 321 321 323 324 325 324 322 322 322 322 322 321 320 317 315 317 317 318 318 318 322 322 322 323 322 321 318 317 312 310 306 311 316 317 316 314 307 306
308 307 311 314 316 318 319 322 323 322 321 320 319 318 313 313 313 313 313 314 316 317 318 319 320 321 321 321 321 322 321 317 315 316 311 305 304 311 314 311 308 304 301
299 298 298 298 301 302 305 309 311 315 316 316 315 313 312 309 311 311 312 313 313 314 315 316 318 319 319 320 320 319 317 315 313 313 316 313 311 306 307 308 302 301 299
298 299 299 299 299 300 300 302 303 306 307 309 310 310 308 309 309 309 310 308 309 311 311 312 313 314 314 315 314 316 314 314 313 310 310 311 311 313 306 305 299 296 295
298 299 300 300 300 300 301 301 302 303 304 306 307 307 307 307 307 307 307 306 306 306 307 307 309 311 311 311 311 312 312 310 311 310 309 307 305 305 308 306 304 297 289
297 299 299 299 300 300 300 301 301 301 302 303 305 305 305 305 305 307 306 305 305 303 304 304 305 306 308 308 307 307 308 307 306 307 306 305 304 303 302 302 298 297 290
299 299 300 299 299 299 300 299 299 300 301 301 303 303 303 304 305 307 306 306 305 304 302 302 302 303 304 304 304 303 303 301 302 301 300 299 299 298 299 299 298 294 293
297 298 298 298 299 298 299 299 298 299 299 300 300 300 300 301 303 305 306 305 305 304 301 300 300 299 299 299 300 300 297 298 297 296 296 295 293 293 293 294 296 295 292
297 298 298 298 299 299 299 299 298 298 298 299 298 298 299 300 301 303 303 303 303 300 298 297 297 296 296 296 296 295 295 294 293 293 293 291 290 290 290 290 290 292 292
296 297 298 297 298 298 298 298 297 297 297 298 298 297 297 297 299 300 301 301 300 297 296 295 295 295 294 293 293 293 293 292 292 291 291 289 289 287 287 286 286 286 289
295 295 295 295 295 295 296 296 297 296 297 297 297 297 296 296 296 297 298 298 297 296 294 294 294 293 293 292 292 292 292 291 290 289 288 288 289 286 285 285 285 284 284
293 293 293 293 293 294 296 296 296 297 298 297 296 295 295 294 294 294 295 296 295 294 293 293 293 293 292 292 291 291 291 290 290 288 288 287 286 285 285 284 283 283 284
292 292 292 292 293 294 294 295 296 296 296 296 295 294 294 294 293 293 293 293 293 292 291 291 291 291 291 290 290 290 290 290 290 289 288 287 286 285 284 283 283 282 282
290 290 291 291 291 292 292 293 293 294 294 293 293 294 295 294 292 291 290 291 290 291 291 290 289 289 289 290 287 287 288 288 287 287 287 286 285 286 286 284 282 282 281
289 290 291 291 291 291 291 292 291 290 290 290 290 291 291 291 290 289 289 287 287 287 287 287 288 288 289 291 291 289 287 286 286 285 284 284 284 286 288 287 286 284 281
289 289 289 289 289 289 290 289 288 288 287 287 287 287 287 287 288 288 288 287 287 287 286 287 286 286 287 291 291 290 287 286 285 284 282 282 282 283 283 287 286 285 286
289 289 288 287 287 287 287 287 286 285 284 284 284 284 285 284 285 286 286 286 286 285 286 286 285 285 287 290 290 290 287 285 284 284 282 282 280 281 281 281 279 279 278
289 288 287 286 285 285 284 283 283 282 282 282 282 282 282 282 282 283 284 285 284 284 284 286 285 284 286 289 290 289 286 284 283 283 281 281 281 282 283 279 277 276 275
286 285 284 283 282 282 281 281 281 281 280 281 281 281 281 280 280 281 282 283 284 285 285 285 284 284 285 288 289 290 285 282 282 281 281 281 280 283 283 277 276 274 274
283 283 282 280 280 280 280 279 279 279 280 280 280 280 279 279 280 281 281 282 282 283 283 283 284 283 284 285 288 290 285 283 281 281 280 280 283 283 283 280 276 276 275
280 280 279 279 279 279 278 278 277 278 278 277 277 277 277 278 279 279 280 280 280 281 281 281 281 282 282 284 286 289 289 285 282 281 280 280 283 283 284 282 279 280 276
279 279 277 277 277 277 277 275 276 275 275 274 273 274 275 276 278 278 278 278 279 279 279 280 280 280 281 281 286 287 288 287 282 281 281 281 283 283 283 283 281 279 273
277 276 274 274 274 275 274 273 273 273 271 270 271 272 273 274 275 277 277 277 277 278 279 279 279 280 281 281 282 283 285 286 283 281 280 280 282 282 281 280 278 273 272
275 273 272 272 272 272 271 271 271 270 269 269 270 270 271 271 272 274 275 276 278 279 278 279 280 280 280 281 283 283 283 284 282 278 278 277 277 277 275 275 271 271 270
271 270 269 268 268 268 268 268 268 267 267 267 267 267 268 269 270 272 273 278 279 280 281 282 283 283 284 285 285 285 286 286 284 277 275 275 275 275 273 271 269 269 268
Wind_Speed
9 9 8 9 8 7 8 8 8 8 4 2 3 2 3 2 3 4 6 7 5 5 5 4 4 4 5 5 5 3 5 4 3 2 2 3 4 5 6 7 7 8 8
6 5 6 6 8 8 7 7 6 5 4 2 1 3 3 4 3 3 5 6 6 5 4 5 5 6 4 6 5 5 3 4 5 4 1 1 2 5 5 4 6 9 6
4 2 2 2 1 3 4 4 4 5 4 6 2 1 2 1 1 2 3 3 5 4 5 6 5 6 5 5 5 6 7 4 4 5 5 2 4 3 2 5 5 6 5
6 6 6 8 8 7 7 7 6 4 2 2 3 6 5 5 3 3 3 4 4 4 5 6 6 6 4 5 5 4 4 5 5 1 3 2 4 3 3 2 3 4 5
7 7 7 7 7 8 7 6 7 6 5 3 3 4 4 3 2 2 4 4 4 5 6 6 6 6 4 5 7 5 5 3 4 4 3 2 2 3 3 4 3 2 3
7 7 7 6 5 5 4 3 3 4 6 6 5 6 7 5 3 3 4 4 3 4 6 6 6 6 6 6 5 5 5 5 4 4 4 4 4 4 3 2 3 4 1
7 7 8 8 7 7 7 6 6 5 5 6 5 5 6 6 6 5 4 5 4 4 7 6 6 5 5 5 4 5 5 5 4 5 4 3 4 3 2 3 3 3 2
7 7 8 7 5 5 4 4 4 5 5 5 6 4 5 3 4 5 4 5 5 5 4 6 6 6 5 4 4 3 3 4 5 6 4 3 3 3 3 4 5 2 2
7 7 5 3 2 3 4 4 5 6 7 6 5 6 6 6 6 7 5 4 5 5 6 6 7 6 6 6 5 3 4 4 4 4 4 3 3 3 3 3 3 5 6
7 5 3 1 3 4 5 4 3 5 6 6 5 5 6 6 6 6 6 7 6 5 6 6 6 6 6 6 6 4 4 6 4 4 6 4 4 4 3 4 3 3 4
5 3 7 9 8 8 8 8 7 7 7 5 5 6 7 7 7 6 6 6 6 6 6 6 7 7 7 6 6 6 7 7 6 5 6 6 6 4 4 3 2 3 3
8 10 8 6 7 6 6 6 6 5 6 6 6 7 7 6 6 7 7 6 8 6 7 7 7 7 7 7 8 8 7 8 8 7 7 7 5 6 5 4 5 5 4
8 6 6 5 5 8 12 12 11 11 10 7 7 7 8 7 8 8 8 7 7 7 7 7 9 9 10 10 10 10 9 10 10 10 10 10 9 8 5 4 5 4 4
6 6 9 8 9 10 11 12 13 12 12 12 9 8 9 9 8 8 8 9 8 8 9 9 9 9 9 10 9 10 10 10 10 10 10 10 11 10 9 7 7 5 5
8 8 7 7 7 10 9 8 8 11 13 12 11 11 12 12 9 8 8 9 8 10 10 9 9 9 9 9 8 7 7 9 7 7 8 9 9 12 12 8 8 8 6
7 7 8 9 10 11 11 11 11 12 11 10 10 11 12 12 11 11 11 8 9 9 8 10 11 11 10 14 15 13 10 9 10 10 7 6 9 13 16 15 16 12 11
7 7 7 7 7 8 9 8 10 10 10 10 9 9 9 11 11 10 10 11 12 10 11 13 11 14 13 16 18 18 10 11 11 12 10 9 6 10 9 14 15 13 15
5 5 5 6 7 9 9 11 10 9 9 9 9 10 12 13 12 12 11 11 8 11 12 13 12 13 13 19 20 18 12 11 12 12 12 13 11 12 12 11 9 6 4
2 2 3 4 7 8 10 10 9 10 11 10 12 12 12 14 15 15 14 12 10 11 11 13 13 13 16 18 21 17 12 12 12 11 12 13 13 18 21 13 11 8 6
5 6 6 5 6 8 9 11 11 10 10 13 14 13 12 13 15 15 15 12 12 13 10 12 12 14 16 17 22 20 10 13 10 11 12 18 15 23 25 12 13 11 9
6 6 6 5 6 7 10 11 10 10 13 14 14 14 13 14 14 15 12 13 13 13 13 13 12 13 13 14 23 26 13 12 10 9 9 10 23 24 25 19 12 12 13
7 7 9 10 9 6 9 12 11 12 14 14 15 15 14 12 12 15 15 14 13 13 13 12 12 9 11 17 22 25 28 19 10 10 8 9 23 24 26 20 18 19 16
6 6 8 12 10 8 9 11 12 13 14 14 14 14 15 13 12 14 14 13 12 11 12 10 10 10 7 8 22 24 27 26 13 9 13 18 24 24 23 24 22 17 10
7 6 9 10 12 10 11 10 12 12 12 13 14 14 14 15 13 11 10 11 10 11 10 11 10 10 8 8 8 10 13 22 17 17 12 16 19 20 15 13 13 7 8
7 7 7 8 10 10 11 11 12 12 13 13 13 13 11 13 14 12 11 11 12 13 13 12 11 11 12 9 13 12 10 10 10 8 6 8 9 10 8 9 9 8 7
7 7 6 6 9 9 9 9 9 9 11 13 11 11 11 11 11 12 14 17 23 25 25 27 22 12 20 23 19 22 22 18 21 9 9 10 9 10 9 9 9 7 9
Wind_Direction
203 189 188 179 189 200 187 189 184 203 166 164 165 199 217 217 232 217 209 214 211 210 213 233 244 236 230 226 218 204 232 240 219 137 299 299 315 53 83 97 101 102 95
190 196 201 193 188 188 191 194 197 189 193 162 155 157 169 223 220 216 224 210 199 205 224 233 241 233 229 238 227 195 192 194 190 164 147 293 341 48 40 85 112 107 103
183 185 202 231 318 218 211 210 198 180 183 196 162 96 46 32 341 268 241 216 198 203 227 242 241 244 222 227 218 194 177 188 211 206 157 164 218 145 47 49 89 103 108
35 65 55 48 49 34 40 45 24 346 332 166 191 195 201 212 215 212 224 224 216 223 239 243 244 239 223 210 198 185 179 153 188 215 230 153 154 171 160 75 56 80 112
71 57 63 60 36 34 35 29 20 14 339 314 239 213 216 217 228 260 239 199 217 221 230 231 232 224 213 202 187 167 200 189 168 174 160 185 170 201 152 159 158 64 40
61 58 55 52 53 53 56 44 12 332 324 310 274 232 226 243 250 223 215 217 231 243 241 241 238 235 217 197 209 180 206 209 206 188 183 163 166 199 188 152 144 151 144
60 51 45 37 28 20 9 355 1 329 311 309 280 244 246 243 248 241 226 216 228 238 235 225 234 239 236 218 193 190 201 202 204 208 194 173 177 149 153 141 147 143 146
69 62 54 46 25 6 351 338 312 292 298 309 280 280 283 268 257 246 230 230 224 233 219 226 237 241 236 217 196 193 198 199 218 202 182 161 166 161 167 170 150 129 145
81 79 75 64 350 302 298 300 323 320 310 307 304 301 304 297 281 280 270 254 245 239 225 217 224 231 230 220 206 201 199 208 210 198 177 150 172 161 163 162 160 152 179
86 91 76 4 319 328 323 331 321 302 300 306 294 289 286 275 271 278 276 262 261 242 212 213 219 226 229 221 202 200 203 192 196 188 181 176 169 168 168 170 173 179 160
131 91 22 11 5 354 346 333 329 313 317 308 294 293 289 297 299 287 274 267 264 239 225 218 220 223 221 214 207 206 200 199 196 193 189 191 173 182 182 173 160 166 152
49 43 42 30 20 1 4 355 337 316 286 280 278 277 278 281 284 280 283 279 268 252 235 227 224 220 217 213 212 212 204 199 199 196 188 195 181 190 187 181 181 179 174
67 55 41 26 4 11 12 3 356 345 333 321 302 295 284 274 263 260 257 256 256 250 245 234 231 229 225 219 217 212 206 205 199 194 193 191 183 189 178 180 182 173 166
63 42 23 10 9 9 5 354 351 353 350 340 314 297 287 277 269 269 259 255 246 243 237 233 234 232 234 231 229 225 219 215 210 202 198 192 193 188 181 180 186 169 164
42 28 16 4 360 3 356 352 349 347 342 338 340 327 316 305 297 286 274 268 245 244 240 241 238 236 229 230 220 217 216 214 208 203 207 201 192 185 185 177 187 174 172
20 17 16 9 2 354 348 344 345 341 337 338 335 333 333 328 314 306 296 276 266 258 242 238 238 237 238 237 218 206 212 210 207 208 203 185 184 194 189 188 191 185 178
6 10 8 357 342 340 336 332 330 331 335 330 329 327 327 323 319 309 302 295 281 266 250 253 240 241 237 228 218 212 220 214 208 198 186 183 189 164 171 187 189 196 203
10 8 356 341 342 341 342 334 330 324 328 324 326 328 329 320 315 313 303 298 278 264 264 259 244 247 245 225 218 210 216 223 221 210 193 189 182 182 165 161 156 155 144
358 357 2 334 336 342 334 327 336 343 337 336 330 327 327 318 316 312 310 301 288 276 262 259 252 242 250 235 224 206 211 221 220 213 201 193 189 187 178 169 165 157 152
22 16 353 358 350 338 338 335 338 334 327 330 318 318 314 312 309 306 303 300 289 279 274 260 249 240 249 238 227 217 213 224 215 203 204 201 187 189 190 176 169 166 164
10 2 6 359 338 336 337 326 328 325 322 318 314 312 315 311 303 300 299 296 293 284 275 263 257 245 238 238 223 221 208 222 218 208 202 198 197 191 194 188 183 179 155
10 16 1 341 342 329 339 331 328 328 319 318 313 312 312 311 309 302 303 301 295 288 281 273 270 255 243 233 230 224 215 211 213 217 202 193 194 200 200 191 192 184 160
351 7 359 330 335 334 339 323 319 322 321 318 311 311 310 307 304 303 304 304 301 289 285 275 270 270 248 239 235 232 223 213 212 193 191 183 192 202 201 197 191 192 156
3 358 343 334 321 323 320 315 318 322 317 315 316 315 316 315 311 304 299 297 297 293 286 282 275 274 263 242 234 236 237 220 204 197 196 191 196 191 186 185 189 144 154
351 341 312 299 299 307 311 312 321 323 325 321 319 317 315 314 312 306 302 298 292 290 293 287 286 283 273 258 244 231 228 218 196 164 168 184 191 189 170 165 141 138 136
313 293 282 285 296 305 306 309 314 320 323 320 320 320 316 316 310 309 309 302 300 304 300 297 288 278 271 267 259 243 239 226 179 171 180 186 189 190 170 155 146 149 157